Frisco, NC

11:19 AM EST on January 16, 2017 (GMT -0500)
Mitchell

Weather History for KHSE - September, 2013

Change the Weather History Date:

Tuesday, September 17, 2013

  Actual Average Record
Temperature  
Mean Temperature 72 °F 74 °F  
Max Temperature 78 °F 80 °F 90 °F (1978)
Min Temperature 66 °F 69 °F 61 °F (1999)
Degree Days  
Heating Degree Days 0 0  
Month to date heating degree days 0 0  
Since 1 July heating degree days 0 0  
Cooling Degree Days 7 9  
Month to date cooling degree days 214 186  
Year to date cooling degree days 1758 1492  
Growing Degree Days 22 (Base 50)    
Moisture  
Dew Point 58 °F    
Average Humidity 69    
Maximum Humidity 84    
Minimum Humidity 53    
Precipitation  
Precipitation T in 0.20 in 6.96 in (2011)
Month to date precipitation 2.62 3.77  
Year to date precipitation 33.82 40.96  
Snow  
Snow 0.00 in - - ()
Month to date snowfall 0.0  
Since 1 July snowfall 0.0  
Snow Depth 0.00 in    
Sea Level Pressure  
Sea Level Pressure 30.20 in    
Wind  
Wind Speed 12 mph (NE)    
Max Wind Speed 20 mph    
Max Gust Speed 30 mph    
Visibility 10 miles    
Events Rain    
T = Trace of Precipitation, MM = Missing Value Source: NWS Daily Summary

Daily Weather History Graph

Daily Weather History Graph

Search for Another Location

Airport or City:

Trip Planner

Search our weather history database for the weather conditions in past years. The results will help you decide how hot, cold, wet, or windy it might be!

Date:

Astronomy

Sep. 17, 2013 Rise Set
Actual Time 6:46 AM EDT 7:06 PM EDT
Civil Twilight 6:21 AM EDT 7:31 PM EDT
Nautical Twilight 5:51 AM EDT 8:01 PM EDT
Astronomical Twilight 5:21 AM EDT 8:31 PM EDT
Moon 5:50 PM EDT (9/17) 4:42 AM EDT (9/17)
Length of Visible Light 13h 10m
Length of Day
12h 19m
Waxing Gibbous, 96% of the Moon is Illuminated
Sep 17
Waxing Gibbous
Sep 19
Full
Sep 26
Last Quarter
Oct 4
New
Oct 11
First Quarter

Hourly Weather History & Observations

Time (EDT) Temp. Dew Point Humidity Pressure Visibility Wind Dir Wind Speed Gust Speed Precip Events Conditions
12:24 AM 71.6 °F 68.0 °F 88% 30.12 in 10.0 mi NNE 10.4 mph 20.7 mph N/A   Overcast
12:51 AM 72.0 °F 66.0 °F 81% 30.13 in 10.0 mi NNE 9.2 mph 18.4 mph N/A   Overcast
1:51 AM 71.1 °F 64.9 °F 81% 30.13 in 10.0 mi NNE 10.4 mph 20.7 mph 0.00 in Rain Light Rain
2:17 AM 71.6 °F 64.4 °F 78% 30.13 in 10.0 mi NNE 10.4 mph 21.9 mph 0.00 in   Overcast
2:51 AM 72.0 °F 62.1 °F 71% 30.13 in 10.0 mi NNE 13.8 mph 21.9 mph 0.00 in   Overcast
3:02 AM 71.6 °F 62.6 °F 73% 30.13 in 10.0 mi NNE 10.4 mph 21.9 mph N/A   Overcast
3:51 AM 71.1 °F 62.1 °F 73% 30.13 in 10.0 mi NE 12.7 mph 23.0 mph N/A   Mostly Cloudy
4:51 AM 70.0 °F 59.0 °F 68% 30.14 in 10.0 mi NE 11.5 mph 21.9 mph N/A   Partly Cloudy
5:51 AM 70.0 °F 59.0 °F 68% 30.15 in 10.0 mi NE 11.5 mph 21.9 mph N/A   Clear
6:51 AM 70.0 °F 57.9 °F 65% 30.18 in 10.0 mi ENE 10.4 mph 23.0 mph N/A   Partly Cloudy
7:51 AM 71.1 °F 57.9 °F 63% 30.19 in 10.0 mi ENE 11.5 mph 17.3 mph N/A   Clear
8:51 AM 73.9 °F 59.0 °F 59% 30.21 in 10.0 mi NE 10.4 mph 17.3 mph N/A   Partly Cloudy
9:51 AM 73.9 °F 57.0 °F 55% 30.23 in 10.0 mi NE 8.1 mph 19.6 mph N/A   Partly Cloudy
10:51 AM 75.9 °F 57.9 °F 54% 30.25 in 10.0 mi NE 13.8 mph 21.9 mph N/A   Partly Cloudy
11:51 AM 77.0 °F 59.0 °F 54% 30.25 in 10.0 mi NE 11.5 mph 23.0 mph N/A   Clear
12:51 PM 77.0 °F 60.1 °F 56% 30.25 in 10.0 mi NE 16.1 mph 25.3 mph N/A   Scattered Clouds
1:51 PM 75.9 °F 61.0 °F 60% 30.24 in 10.0 mi NE 16.1 mph 29.9 mph N/A   Overcast
2:51 PM 73.9 °F 57.9 °F 57% 30.23 in 10.0 mi NE 13.8 mph 27.6 mph N/A   Mostly Cloudy
3:51 PM 73.0 °F 55.9 °F 55% 30.23 in 10.0 mi NE 17.3 mph 26.5 mph N/A   Partly Cloudy
4:51 PM 72.0 °F 55.0 °F 55% 30.23 in 10.0 mi NE 12.7 mph 25.3 mph N/A   Clear
5:51 PM 70.0 °F 54.0 °F 57% 30.23 in 10.0 mi NE 11.5 mph 27.6 mph N/A   Partly Cloudy
6:51 PM 68.0 °F 53.1 °F 59% 30.23 in 10.0 mi NE 9.2 mph 21.9 mph N/A   Partly Cloudy
7:51 PM 66.9 °F 52.0 °F 59% 30.24 in 10.0 mi NE 9.2 mph 21.9 mph N/A   Partly Cloudy
8:51 PM 66.9 °F 52.0 °F 59% 30.25 in 10.0 mi NE 13.8 mph 21.9 mph N/A   Partly Cloudy
9:51 PM 66.9 °F 53.1 °F 61% 30.25 in 10.0 mi NE 10.4 mph 19.6 mph N/A   Clear
10:51 PM 66.9 °F 53.1 °F 61% 30.26 in 10.0 mi NE 8.1 mph 18.4 mph N/A   Clear
11:51 PM 66.9 °F 54.0 °F 63% 30.24 in 10.0 mi NE 6.9 mph - N/A   Clear